Weather Roundup
Issued by NWS Chicago, IL

Home | Current Version | Previous Version | Graphics & Text | Print | Product List | Glossary On
Versions: 1 2 3 4 5 6 7 8 9 10 11 12 13 14 15 16 17 18 19 20 21 22 23 24 25 26 27 28 29 30 31 32 33 34 35 36 37 38 39 40 41 42 43 44 45 46 47 48 49 50
812
NZUS59 KLOT 290503
HRRLOT

CHICAGO AREA WEATHER ROUNDUP
NATIONAL WEATHER SERVICE CHICAGO/ROMEOVILLE IL
1200 AM CDT SAT APR 29 2017

NOTE: "FAIR" INDICATES FEW OR NO CLOUDS BELOW 12,000 FEET WITH NO
SIGNIFICANT WEATHER AND/OR OBSTRUCTIONS TO VISIBILITY.

* THESE STATIONS ARE NOT UNDER NWS QUALITY CONTROL. THEY ALSO MAY NOT
  REPORT WEATHER SUCH AS PRECIPITATION OR FOG.

ILZ005-006-012>014-019>023-290600-
NORTHEAST ILLINOIS

CITY           SKY/WX    TMP DP  RH WIND       PRES   REMARKS
OHARE          CLOUDY    47  39  74 NE15      30.02R
MIDWAY         CLOUDY    49  39  68 N14G24    30.02R
AURORA         CLOUDY    50  42  74 NE13      29.98S
LANSING*       CLOUDY    48  44  85 N13       30.01R
JOLIET*        CLOUDY    52  46  78 NE10G18   29.97F
WAUKEGAN       CLOUDY    44  41  89 NE7       30.03R
DUPAGE AIRPORT CLOUDY    49  41  74 NE15      30.00R
WHEELING       CLOUDY    45  41  86 N10       30.04R
KANKAKEE*      CLOUDY    53  50  89 NE6       29.95F
MORRIS*        CLOUDY    52  46  81 CALM      29.96F
NORTHERLY ISL    N/A     46  39  76 MISG        N/A
$$

WIZ051-052-058>065-066-070>072-290600-
SOUTHEAST WISCONSIN

CITY           SKY/WX    TMP DP  RH WIND       PRES   REMARKS
MILWAUKEE      CLOUDY    45  42  89 N5        30.05R
KENOSHA*       CLOUDY    44  41  89 NE6       30.04R FOG
RACINE*        CLOUDY    42  39  89 N9        30.06R FOG
WAUKESHA       CLOUDY    43  41  93 N6        30.06R
WEST BEND      CLOUDY    43  43 100 N3        30.05R
$$

INZ001>003-010>013-019-020-290600-
NORTHWEST INDIANA

CITY           SKY/WX    TMP DP  RH WIND       PRES   REMARKS
GARY*          CLOUDY    48  41  75 N9        30.02R
MICHIGAN CITY* NOT AVBL
RENSSELAER*    NOT AVBL
VALPARAISO     CLOUDY    55  51  86 N9        29.98R
$$

LMZ740>746-290600-
SOUTHERN LAKE MICHIGAN

STATION/POSITION TIME  SKY/WX   TEMP WIND        PRES    VSBY
                                AIR  DIR/SP/G
                 (UTC)          (F)  (DEG/KT/KT) (MB)    (MI)
HARRISON CRIB    0430            46  360/ 18/ 19   N/A
BURNHAM HARBOR   0500            45  360/ 18/ 18   N/A
CALUMET HARBOR   0430            47  350/ 14/ 19 1015.7R
BURNS HARBOR     0440            46   40/ 11/ 13 1015.9R
MICHIGAN CITY    0440            46   30/ 13/ 15   N/A
$$

ABBREVIATIONS USED IN REMARKS
   TC - TEMPERATURE IN CELSIUS
  WCI - WIND CHILL INDEX
   HX - HEAT INDEX
  VSB - VISIBILITY
$$




USA.gov is the U.S. government's official web portal to all federal, state and local government web resources and services.